Date String (YYYY-MM-DD hh:mm:ss) UTC,Instrument flags,absolute air pressure of the measurement (hPa),sample flow rate (lpm),inlet stack bypass flow (lpm),air temperature of the measurement (°C),ambient temperature measured by the external sensor (°C),aerosol sample conditioner tube jacket temperature (°C),OPC LED temperature (°C),internal box temperature (°C),relative humidity of the measurement (%),span deviation,mass concentration of particles derived from Lorenz-Mie calculation of OPC scattering (μg/m³),mass concentration of particles derived from Lorenz-Mie calculation of OPC scattering (μg/m³),mass concentration of particles derived from Lorenz-Mie calculation of OPC scattering (μg/m³)
DateTimeUTC,F1_M11,P_M11,Q1_M11,Q2_M11,T1_M11,T2_M11,T3_M11,T4_M11,T5_M11,U1_M11,ZSPAN_M11,X2_M11,X0_M11,X1_M11
2024-02-02 14:00:00,SystemResetWarning,0818.3,5.00,000.00,021.9,021.3,000.0,030.3,023.6,12.5,0000.0,0003.35,0009.35,0002.85
2024-02-02 14:01:00,SystemResetWarning,0818.3,5.02,000.00,021.9,021.3,000.0,030.3,023.6,12.5,0000.0,0003.37,0009.67,0002.85
2024-02-02 14:02:00,SystemResetWarning,0818.3,5.00,000.00,021.9,021.3,000.0,030.3,023.6,12.5,0000.0,0003.35,0009.17,0002.83
2024-02-02 14:03:00,SystemResetWarning,0818.3,4.99,000.00,021.9,021.3,000.0,030.3,023.6,12.5,0000.0,0003.35,0009.00,0002.80
2024-02-02 14:04:00,SystemResetWarning,0818.3,5.00,000.00,021.9,021.2,000.0,030.3,023.6,12.5,0000.0,0003.35,0009.35,0002.78
2024-02-02 14:05:00,SystemResetWarning,0818.3,4.99,000.00,021.9,021.2,000.0,030.3,023.6,12.5,0000.0,0003.33,0009.67,0002.77
2024-02-02 14:06:00,SystemResetWarning,0818.3,5.00,000.00,021.9,021.2,000.0,030.3,023.6,12.5,0000.0,0003.34,0009.65,0002.76
2024-02-02 14:07:00,SystemResetWarning,0818.2,5.01,000.00,021.9,021.2,000.0,030.3,023.6,12.5,0000.0,0003.34,0009.61,0002.76
2024-02-02 14:08:00,SystemResetWarning,0818.3,5.01,000.00,021.9,021.2,000.0,030.2,023.6,12.5,0000.0,0003.35,0009.40,0002.78
2024-02-02 14:09:00,SystemResetWarning,0818.3,5.01,000.00,021.9,021.2,000.0,030.2,023.6,12.6,0000.0,0003.35,0008.71,0002.79
2024-02-02 14:10:00,SystemResetWarning,0818.3,5.00,000.00,021.9,021.2,000.0,030.2,023.5,12.6,0000.0,0003.34,0008.51,0002.80
2024-02-02 14:11:00,SystemResetWarning,0818.3,4.99,000.00,021.9,021.2,000.0,030.2,023.6,12.6,0000.0,0003.36,0008.54,0002.81
2024-02-02 14:12:00,SystemResetWarning,0818.3,4.99,000.00,021.9,021.2,000.0,030.2,023.5,12.6,0000.0,0003.38,0008.94,0002.84
2024-02-02 14:13:00,SystemResetWarning,0818.3,5.00,000.00,021.9,021.2,000.0,030.2,023.6,12.6,0000.0,0003.38,0008.58,0002.86
2024-02-02 14:14:00,SystemResetWarning,0818.3,5.00,000.00,021.9,021.2,000.0,030.2,023.6,12.6,0000.0,0003.39,0008.81,0002.87
2024-02-02 14:15:00,SystemResetWarning,0818.2,5.00,000.00,021.9,021.2,000.0,030.2,023.5,12.6,0000.0,0003.35,0008.46,0002.87
2024-02-02 14:16:00,SystemResetWarning,0818.3,5.00,000.00,021.9,021.2,000.0,030.2,023.6,12.6,0000.0,0003.34,0007.09,0002.87
2024-02-02 14:17:00,SystemResetWarning,0818.3,5.01,000.00,021.9,021.2,000.0,030.2,023.6,12.6,0000.0,0003.33,0006.87,0002.88
2024-02-02 14:18:00,SystemResetWarning,0818.3,5.00,000.00,021.9,021.2,000.0,030.2,023.6,12.6,0000.0,0003.31,0006.66,0002.88
2024-02-02 14:19:00,SystemResetWarning,0818.3,4.99,000.00,021.9,021.2,000.0,030.2,023.6,12.6,0000.0,0003.32,0006.73,0002.90
2024-02-02 14:20:00,SystemResetWarning,0818.3,4.99,000.00,021.9,021.2,000.0,030.2,023.6,12.7,0000.0,0003.32,0006.87,0002.90
2024-02-02 14:21:00,SystemResetWarning,0818.3,4.99,000.00,021.9,021.2,000.0,030.2,023.6,12.6,0000.0,0003.30,0007.13,0002.90
2024-02-02 14:22:00,SystemResetWarning,0818.3,5.00,000.00,021.9,021.2,000.0,030.2,023.6,12.6,0000.0,0003.29,0007.06,0002.88
2024-02-02 14:23:00,SystemResetWarning,0818.3,5.00,000.00,021.9,021.2,000.0,030.2,023.6,12.6,0000.0,0003.28,0007.46,0002.86
2024-02-02 14:24:00,SystemResetWarning,0818.3,5.00,000.00,021.9,021.2,000.0,030.2,023.6,12.6,0000.0,0003.28,0008.25,0002.85
2024-02-02 14:25:00,SystemResetWarning,0818.3,5.00,000.00,021.9,021.2,000.0,030.2,023.6,12.6,0000.0,0003.32,0008.43,0002.85
2024-02-02 14:26:00,SystemResetWarning,0818.3,5.00,000.00,021.9,021.2,000.0,030.2,023.6,12.7,0000.0,0003.33,0008.28,0002.86
2024-02-02 14:27:00,SystemResetWarning,0818.4,5.00,000.00,021.9,021.2,000.0,030.3,023.6,12.7,0000.0,0003.35,0008.41,0002.88
2024-02-02 14:28:00,SystemResetWarning,0818.5,5.00,000.00,021.9,021.2,000.0,030.2,023.6,12.7,0000.0,0003.38,0009.09,0002.91
2024-02-02 14:29:00,SystemResetWarning,0818.4,5.01,000.00,021.9,021.2,000.0,030.3,023.6,12.7,0000.0,0003.41,0009.73,0002.95
2024-02-02 14:30:00,SystemResetWarning,0818.4,5.00,000.00,021.9,021.2,000.0,030.3,023.6,12.7,0000.0,0003.46,0010.06,0002.99
2024-02-02 14:31:00,SystemResetWarning,0818.4,5.00,000.00,021.9,021.2,000.0,030.2,023.6,12.8,0000.0,0003.52,0010.40,0003.04
2024-02-02 14:32:00,SystemResetWarning,0818.4,4.99,000.00,021.9,021.2,000.0,030.2,023.6,12.9,0000.0,0003.58,0010.41,0003.10
2024-02-02 14:33:00,SystemResetWarning,0818.4,5.00,000.00,021.8,021.2,000.0,030.2,023.6,12.9,0000.0,0003.65,0010.76,0003.14
2024-02-02 14:34:00,SystemResetWarning,0818.3,5.00,000.00,021.8,021.1,000.0,030.2,023.6,12.9,0000.0,0003.70,0011.14,0003.17
2024-02-02 14:35:00,SystemResetWarning,0818.3,5.01,000.00,021.8,021.1,000.0,030.2,023.6,12.8,0000.0,0003.79,0010.38,0003.21
2024-02-02 14:36:00,SystemResetWarning,0818.3,5.01,000.00,021.8,021.1,000.0,030.2,023.6,12.8,0000.0,0003.84,0010.15,0003.26
2024-02-02 14:37:00,SystemResetWarning,0818.3,5.01,000.00,021.8,021.1,000.0,030.2,023.6,12.9,0000.0,0003.92,0010.26,0003.31
2024-02-02 14:38:00,SystemResetWarning,0818.3,4.99,000.00,021.8,021.1,000.0,030.2,023.5,12.9,0000.0,0004.01,0010.53,0003.35
2024-02-02 14:39:00,SystemResetWarning,0818.3,4.99,000.00,021.8,021.1,000.0,030.2,023.6,12.9,0000.0,0004.06,0010.25,0003.39
2024-02-02 14:40:00,SystemResetWarning,0818.3,5.00,000.00,021.8,021.1,000.0,030.2,023.6,12.9,0000.0,0004.12,0010.11,0003.43
2024-02-02 14:41:00,SystemResetWarning,0818.3,5.01,000.00,021.8,021.1,000.0,030.2,023.6,12.9,0000.0,0004.17,0010.39,0003.46
2024-02-02 14:42:00,SystemResetWarning,0818.3,5.01,000.00,021.8,021.1,000.0,030.2,023.6,12.9,0000.0,0004.18,0010.68,0003.48
2024-02-02 14:43:00,SystemResetWarning,0818.3,5.00,000.00,021.8,021.1,000.0,030.2,023.6,12.9,0000.0,0004.17,0010.49,0003.49
2024-02-02 14:44:00,SystemResetWarning,0818.3,4.99,000.00,021.8,021.1,000.0,030.2,023.6,13.0,0000.0,0004.21,0011.09,0003.51
2024-02-02 14:45:00,SystemResetWarning,0818.3,5.00,000.00,021.8,021.1,000.0,030.2,023.5,12.9,0000.0,0004.22,0010.63,0003.53
2024-02-02 14:46:00,SystemResetWarning,0818.4,4.99,000.00,021.8,021.1,000.0,030.2,023.5,12.8,0000.0,0004.23,0010.46,0003.56
2024-02-02 14:47:00,SystemResetWarning,0818.4,5.00,000.00,021.8,021.1,000.0,030.2,023.5,12.9,0000.0,0004.23,0010.39,0003.57
2024-02-02 14:48:00,SystemResetWarning,0818.4,5.00,000.00,021.8,021.1,000.0,030.2,023.5,12.9,0000.0,0004.24,0010.70,0003.57
2024-02-02 14:49:00,SystemResetWarning,0818.4,5.00,000.00,021.8,021.1,000.0,030.2,023.5,12.9,0000.0,0004.24,0010.90,0003.57
2024-02-02 14:50:00,SystemResetWarning,0818.4,5.01,000.00,021.8,021.1,000.0,030.2,023.5,12.9,0000.0,0004.22,0010.84,0003.56
2024-02-02 14:51:00,SystemResetWarning,0818.4,5.00,000.00,021.8,021.1,000.0,030.2,023.5,12.9,0000.0,0004.19,0010.92,0003.55
2024-02-02 14:52:00,SystemResetWarning,0818.4,4.99,000.00,021.8,021.1,000.0,030.2,023.5,12.9,0000.0,0004.16,0011.23,0003.52
2024-02-02 14:53:00,SystemResetWarning,0818.4,5.00,000.00,021.8,021.1,000.0,030.2,023.5,12.9,0000.0,0004.11,0011.15,0003.50
2024-02-02 14:54:00,SystemResetWarning,0818.4,4.99,000.00,021.8,021.1,000.0,030.2,023.5,12.9,0000.0,0004.10,0011.31,0003.48
2024-02-02 14:55:00,SystemResetWarning,0818.4,5.00,000.00,021.7,021.1,000.0,030.2,023.5,12.9,0000.0,0004.06,0010.50,0003.45
2024-02-02 14:56:00,SystemResetWarning,0818.4,5.00,000.00,021.7,021.1,000.0,030.2,023.5,13.0,0000.0,0003.98,0010.18,0003.40
2024-02-02 14:57:00,SystemResetWarning,0818.4,5.00,000.00,021.7,021.1,000.0,030.2,023.5,12.8,0000.0,0003.95,0010.12,0003.36
2024-02-02 14:58:00,SystemResetWarning,0818.4,5.00,000.00,021.7,021.1,000.0,030.2,023.5,12.8,0000.0,0003.90,0010.04,0003.32
2024-02-02 14:59:00,SystemResetWarning,0818.4,5.00,000.00,021.7,021.1,000.0,030.2,023.5,12.9,0000.0,0003.85,0009.73,0003.30
